Date,TemperatureHighF,TemperatureAvgF,TemperatureLowF,DewpointHighF,DewpointAvgF,DewpointLowF,HumidityHigh,HumidityAvg,HumidityLow,PressureMaxIn,PressureMinIn,WindSpeedMaxMPH,WindSpeedAvgMPH,GustSpeedMaxMPH,PrecipitationSumIn
2013-1-1,18,3,-16,16,-1,-20,90,83,72,30.22,29.97,3,1,10,0.00
2013-1-2,20,18,16,18,16,14,93,90,86,30.03,29.90,3,1,9,0.00
2013-1-3,19,12,10,16,8,5,88,81,66,30.21,30.03,3,2,10,0.00
2013-1-4,33,24,13,20,16,11,90,74,58,30.08,29.98,2,0,6,0.00
2013-1-5,21,14,7,15,11,4,91,87,76,29.92,29.85,2,0,6,0.00
2013-1-6,25,17,8,13,10,4,85,74,57,30.17,30.11,3,1,7,0.00
2013-1-7,40,34,28,27,25,22,81,70,60,29.88,29.82,4,2,11,0.01
2013-1-8,32,27,15,28,23,13,94,86,76,29.91,29.70,6,2,12,0.01
2013-1-9,33,27,23,25,21,19,85,77,63,30.29,29.94,7,2,23,0.00
2013-1-10,42,36,28,32,27,23,95,72,46,30.18,29.70,7,4,15,0.23
2013-1-11,37,35,33,36,34,32,97,96,95,29.70,29.35,5,1,10,0.27
2013-1-12,13,9,1,8,3,-3,82,76,69,30.02,29.72,6,2,15,0.05
2013-1-13,7,2,-3,1,-2,-7,84,81,75,30.14,30.01,4,1,8,0.00
2013-1-14,14,8,-1,4,2,-4,87,75,62,30.35,30.25,5,1,9,0.00
2013-1-15,26,20,5,16,13,3,90,73,57,30.17,29.75,5,2,13,0.00
2013-1-16,33,21,9,30,11,-4,94,67,43,30.19,29.59,5,2,14,0.00
2013-1-17,17,9,5,7,0,-4,84,68,55,30.32,30.19,3,1,10,0.00
2013-1-18,40,30,18,30,25,15,92,82,65,29.84,29.68,4,1,9,0.02
2013-1-19,37,19,-1,30,13,-7,95,77,62,30.17,29.64,12,5,28,0.02
2013-1-20,5,0,-6,-1,-7,-12,85,72,60,30.35,30.17,6,2,14,0.00
2013-1-21,-5,-10,-15,-12,-18,-21,80,69,59,30.29,30.22,5,2,14,0.00
2013-1-22,1,-6,-21,-5,-13,-25,82,72,60,30.33,30.18,3,0,6,0.00
2013-1-23,13,4,-4,6,-5,-15,84,66,49,30.48,30.10,15,5,24,0.00
2013-1-24,9,2,-9,1,-6,-16,70,66,64,30.59,30.12,7,3,13,0.00
2013-1-25,17,9,0,11,2,-6,80,71,62,30.27,29.86,6,2,17,0.00
2013-1-26,21,11,-2,12,3,-7,85,72,62,30.29,30.07,5,2,11,0.00
2013-1-27,33,27,21,28,19,12,90,72,65,30.07,29.82,6,3,11,0.00
2013-1-28,33,32,31,32,31,30,96,96,95,29.80,29.61,6,3,12,0.07
2013-1-29,34,31,26,32,28,20,96,87,79,29.73,29.49,13,5,19,0.07
2013-1-30,26,13,6,20,8,1,82,78,73,29.70,29.63,12,6,22,0.01
2013-1-31,6,-3,-10,1,-10,-17,79,70,65,30.21,29.70,10,5,18,0.00